Index of /20260424/WXO-DD/model_rdps/10km/06/058
Name Last modified Size Description
Parent Directory -
20260424T06Z_MSC_RDPS_AbsoluteVorticity_IsbL-0250_RLatLon0.09_PT058H.grib2 2026-04-24 09:01 604K
20260424T06Z_MSC_RDPS_AbsoluteVorticity_IsbL-0500_RLatLon0.09_PT058H.grib2 2026-04-24 09:01 568K
20260424T06Z_MSC_RDPS_AbsoluteVorticity_IsbL-0700_RLatLon0.09_PT058H.grib2 2026-04-24 09:01 622K
20260424T06Z_MSC_RDPS_AbsoluteVorticity_IsbL-0850_RLatLon0.09_PT058H.grib2 2026-04-24 09:01 788K
20260424T06Z_MSC_RDPS_AirTemp_AGL-120m_RLatLon0.09_PT058H.grib2 2026-04-24 09:01 403K
20260424T06Z_MSC_RDPS_AirTemp_AGL-2m_RLatLon0.09_PT058H.grib2 2026-04-24 09:01 643K
20260424T06Z_MSC_RDPS_AirTemp_AGL-40m_RLatLon0.09_PT058H.grib2 2026-04-24 09:01 411K
20260424T06Z_MSC_RDPS_AirTemp_AGL-80m_RLatLon0.09_PT058H.grib2 2026-04-24 09:01 407K
20260424T06Z_MSC_RDPS_AirTemp_IsbL-0001_RLatLon0.09_PT058H.grib2 2026-04-24 09:01 320K
20260424T06Z_MSC_RDPS_AirTemp_IsbL-0005_RLatLon0.09_PT058H.grib2 2026-04-24 09:01 333K
20260424T06Z_MSC_RDPS_AirTemp_IsbL-0010_RLatLon0.09_PT058H.grib2 2026-04-24 09:01 306K
20260424T06Z_MSC_RDPS_AirTemp_IsbL-0020_RLatLon0.09_PT058H.grib2 2026-04-24 09:01 327K
20260424T06Z_MSC_RDPS_AirTemp_IsbL-0030_RLatLon0.09_PT058H.grib2 2026-04-24 09:01 350K
20260424T06Z_MSC_RDPS_AirTemp_IsbL-0050_RLatLon0.09_PT058H.grib2 2026-04-24 09:01 328K
20260424T06Z_MSC_RDPS_AirTemp_IsbL-0100_RLatLon0.09_PT058H.grib2 2026-04-24 09:01 422K
20260424T06Z_MSC_RDPS_AirTemp_IsbL-0150_RLatLon0.09_PT058H.grib2 2026-04-24 09:01 415K
20260424T06Z_MSC_RDPS_AirTemp_IsbL-0175_RLatLon0.09_PT058H.grib2 2026-04-24 09:01 409K
20260424T06Z_MSC_RDPS_AirTemp_IsbL-0200_RLatLon0.09_PT058H.grib2 2026-04-24 09:01 415K
20260424T06Z_MSC_RDPS_AirTemp_IsbL-0225_RLatLon0.09_PT058H.grib2 2026-04-24 09:01 417K
20260424T06Z_MSC_RDPS_AirTemp_IsbL-0250_RLatLon0.09_PT058H.grib2 2026-04-24 09:01 425K
20260424T06Z_MSC_RDPS_AirTemp_IsbL-0275_RLatLon0.09_PT058H.grib2 2026-04-24 09:01 405K
20260424T06Z_MSC_RDPS_AirTemp_IsbL-0300_RLatLon0.09_PT058H.grib2 2026-04-24 09:01 436K
20260424T06Z_MSC_RDPS_AirTemp_IsbL-0350_RLatLon0.09_PT058H.grib2 2026-04-24 09:01 421K
20260424T06Z_MSC_RDPS_AirTemp_IsbL-0400_RLatLon0.09_PT058H.grib2 2026-04-24 09:01 421K
20260424T06Z_MSC_RDPS_AirTemp_IsbL-0450_RLatLon0.09_PT058H.grib2 2026-04-24 09:01 394K
20260424T06Z_MSC_RDPS_AirTemp_IsbL-0500_RLatLon0.09_PT058H.grib2 2026-04-24 09:01 406K
20260424T06Z_MSC_RDPS_AirTemp_IsbL-0550_RLatLon0.09_PT058H.grib2 2026-04-24 09:01 424K
20260424T06Z_MSC_RDPS_AirTemp_IsbL-0600_RLatLon0.09_PT058H.grib2 2026-04-24 09:01 441K
20260424T06Z_MSC_RDPS_AirTemp_IsbL-0650_RLatLon0.09_PT058H.grib2 2026-04-24 09:01 456K
20260424T06Z_MSC_RDPS_AirTemp_IsbL-0700_RLatLon0.09_PT058H.grib2 2026-04-24 09:01 485K
20260424T06Z_MSC_RDPS_AirTemp_IsbL-0750_RLatLon0.09_PT058H.grib2 2026-04-24 09:01 414K
20260424T06Z_MSC_RDPS_AirTemp_IsbL-0800_RLatLon0.09_PT058H.grib2 2026-04-24 09:01 461K
20260424T06Z_MSC_RDPS_AirTemp_IsbL-0850_RLatLon0.09_PT058H.grib2 2026-04-24 09:01 510K
20260424T06Z_MSC_RDPS_AirTemp_IsbL-0875_RLatLon0.09_PT058H.grib2 2026-04-24 09:01 527K
20260424T06Z_MSC_RDPS_AirTemp_IsbL-0900_RLatLon0.09_PT058H.grib2 2026-04-24 09:01 533K
20260424T06Z_MSC_RDPS_AirTemp_IsbL-0925_RLatLon0.09_PT058H.grib2 2026-04-24 09:01 534K
20260424T06Z_MSC_RDPS_AirTemp_IsbL-0950_RLatLon0.09_PT058H.grib2 2026-04-24 09:01 535K
20260424T06Z_MSC_RDPS_AirTemp_IsbL-0970_RLatLon0.09_PT058H.grib2 2026-04-24 09:01 535K
20260424T06Z_MSC_RDPS_AirTemp_IsbL-0985_RLatLon0.09_PT058H.grib2 2026-04-24 09:01 529K
20260424T06Z_MSC_RDPS_AirTemp_IsbL-1000_RLatLon0.09_PT058H.grib2 2026-04-24 09:01 521K
20260424T06Z_MSC_RDPS_AirTemp_IsbL-1015_RLatLon0.09_PT058H.grib2 2026-04-24 09:01 516K
20260424T06Z_MSC_RDPS_Albedo_Sfc_RLatLon0.09_PT058H.grib2 2026-04-24 09:01 165K
20260424T06Z_MSC_RDPS_CAPE_Sfc_RLatLon0.09_PT058H.grib2 2026-04-24 09:01 1.8M
20260424T06Z_MSC_RDPS_CIN_Sfc_RLatLon0.09_PT058H.grib2 2026-04-24 09:01 1.1M
20260424T06Z_MSC_RDPS_CloudWater_EAtm_RLatLon0.09_PT058H.grib2 2026-04-24 09:01 218K
20260424T06Z_MSC_RDPS_ConvectivePrecip-Accum_Sfc_RLatLon0.09_PT058H.grib2 2026-04-24 09:01 1.2M
20260424T06Z_MSC_RDPS_DewPointDepression_AGL-2m_RLatLon0.09_PT058H.grib2 2026-04-24 09:01 421K
20260424T06Z_MSC_RDPS_DewPointDepression_IsbL-0001_RLatLon0.09_PT058H.grib2 2026-04-24 09:01 193
20260424T06Z_MSC_RDPS_DewPointDepression_IsbL-0005_RLatLon0.09_PT058H.grib2 2026-04-24 09:01 193
20260424T06Z_MSC_RDPS_DewPointDepression_IsbL-0010_RLatLon0.09_PT058H.grib2 2026-04-24 09:01 193
20260424T06Z_MSC_RDPS_DewPointDepression_IsbL-0020_RLatLon0.09_PT058H.grib2 2026-04-24 09:01 193
20260424T06Z_MSC_RDPS_DewPointDepression_IsbL-0030_RLatLon0.09_PT058H.grib2 2026-04-24 09:01 193
20260424T06Z_MSC_RDPS_DewPointDepression_IsbL-0050_RLatLon0.09_PT058H.grib2 2026-04-24 09:01 93K
20260424T06Z_MSC_RDPS_DewPointDepression_IsbL-0100_RLatLon0.09_PT058H.grib2 2026-04-24 09:01 125K
20260424T06Z_MSC_RDPS_DewPointDepression_IsbL-0150_RLatLon0.09_PT058H.grib2 2026-04-24 09:01 145K
20260424T06Z_MSC_RDPS_DewPointDepression_IsbL-0175_RLatLon0.09_PT058H.grib2 2026-04-24 09:01 185K
20260424T06Z_MSC_RDPS_DewPointDepression_IsbL-0200_RLatLon0.09_PT058H.grib2 2026-04-24 09:01 219K
20260424T06Z_MSC_RDPS_DewPointDepression_IsbL-0225_RLatLon0.09_PT058H.grib2 2026-04-24 09:01 258K
20260424T06Z_MSC_RDPS_DewPointDepression_IsbL-0250_RLatLon0.09_PT058H.grib2 2026-04-24 09:01 299K
20260424T06Z_MSC_RDPS_DewPointDepression_IsbL-0275_RLatLon0.09_PT058H.grib2 2026-04-24 09:01 307K
20260424T06Z_MSC_RDPS_DewPointDepression_IsbL-0300_RLatLon0.09_PT058H.grib2 2026-04-24 09:01 326K
20260424T06Z_MSC_RDPS_DewPointDepression_IsbL-0350_RLatLon0.09_PT058H.grib2 2026-04-24 09:01 332K
20260424T06Z_MSC_RDPS_DewPointDepression_IsbL-0400_RLatLon0.09_PT058H.grib2 2026-04-24 09:01 344K
20260424T06Z_MSC_RDPS_DewPointDepression_IsbL-0450_RLatLon0.09_PT058H.grib2 2026-04-24 09:01 352K
20260424T06Z_MSC_RDPS_DewPointDepression_IsbL-0500_RLatLon0.09_PT058H.grib2 2026-04-24 09:01 358K
20260424T06Z_MSC_RDPS_DewPointDepression_IsbL-0550_RLatLon0.09_PT058H.grib2 2026-04-24 09:01 372K
20260424T06Z_MSC_RDPS_DewPointDepression_IsbL-0600_RLatLon0.09_PT058H.grib2 2026-04-24 09:01 382K
20260424T06Z_MSC_RDPS_DewPointDepression_IsbL-0650_RLatLon0.09_PT058H.grib2 2026-04-24 09:01 384K
20260424T06Z_MSC_RDPS_DewPointDepression_IsbL-0700_RLatLon0.09_PT058H.grib2 2026-04-24 09:01 398K
20260424T06Z_MSC_RDPS_DewPointDepression_IsbL-0750_RLatLon0.09_PT058H.grib2 2026-04-24 09:01 422K
20260424T06Z_MSC_RDPS_DewPointDepression_IsbL-0800_RLatLon0.09_PT058H.grib2 2026-04-24 09:01 454K
20260424T06Z_MSC_RDPS_DewPointDepression_IsbL-0850_RLatLon0.09_PT058H.grib2 2026-04-24 09:01 481K
20260424T06Z_MSC_RDPS_DewPointDepression_IsbL-0875_RLatLon0.09_PT058H.grib2 2026-04-24 09:01 481K
20260424T06Z_MSC_RDPS_DewPointDepression_IsbL-0900_RLatLon0.09_PT058H.grib2 2026-04-24 09:01 471K
20260424T06Z_MSC_RDPS_DewPointDepression_IsbL-0925_RLatLon0.09_PT058H.grib2 2026-04-24 09:01 458K
20260424T06Z_MSC_RDPS_DewPointDepression_IsbL-0950_RLatLon0.09_PT058H.grib2 2026-04-24 09:01 450K
20260424T06Z_MSC_RDPS_DewPointDepression_IsbL-0970_RLatLon0.09_PT058H.grib2 2026-04-24 09:01 444K
20260424T06Z_MSC_RDPS_DewPointDepression_IsbL-0985_RLatLon0.09_PT058H.grib2 2026-04-24 09:01 442K
20260424T06Z_MSC_RDPS_DewPointDepression_IsbL-1000_RLatLon0.09_PT058H.grib2 2026-04-24 09:01 435K
20260424T06Z_MSC_RDPS_DewPointDepression_IsbL-1015_RLatLon0.09_PT058H.grib2 2026-04-24 09:01 428K
20260424T06Z_MSC_RDPS_DewPoint_AGL-2m_RLatLon0.09_PT058H.grib2 2026-04-24 09:01 406K
20260424T06Z_MSC_RDPS_DownwardLongwaveRadiationFlux-Accum_Sfc_RLatLon0.09_PT058H.grib2 2026-04-24 09:01 396K
20260424T06Z_MSC_RDPS_DownwardShortwaveRadiationFlux-Accum_NTAtm_RLatLon0.09_PT058H.grib2 2026-04-24 09:01 105K
20260424T06Z_MSC_RDPS_DownwardShortwaveRadiationFlux-Accum_Sfc_RLatLon0.09_PT058H.grib2 2026-04-24 09:01 587K
20260424T06Z_MSC_RDPS_FreezingRain-Accum1h_Sfc_RLatLon0.09_PT058H.grib2 2026-04-24 09:01 37K
20260424T06Z_MSC_RDPS_FreezingRain-Accum_Sfc_RLatLon0.09_PT058H.grib2 2026-04-24 09:01 185K
20260424T06Z_MSC_RDPS_GeopotentialHeight_IsbL-0001_RLatLon0.09_PT058H.grib2 2026-04-24 09:01 276K
20260424T06Z_MSC_RDPS_GeopotentialHeight_IsbL-0005_RLatLon0.09_PT058H.grib2 2026-04-24 09:01 312K
20260424T06Z_MSC_RDPS_GeopotentialHeight_IsbL-0010_RLatLon0.09_PT058H.grib2 2026-04-24 09:01 342K
20260424T06Z_MSC_RDPS_GeopotentialHeight_IsbL-0020_RLatLon0.09_PT058H.grib2 2026-04-24 09:01 309K
20260424T06Z_MSC_RDPS_GeopotentialHeight_IsbL-0030_RLatLon0.09_PT058H.grib2 2026-04-24 09:01 410K
20260424T06Z_MSC_RDPS_GeopotentialHeight_IsbL-0050_RLatLon0.09_PT058H.grib2 2026-04-24 09:01 312K
20260424T06Z_MSC_RDPS_GeopotentialHeight_IsbL-0100_RLatLon0.09_PT058H.grib2 2026-04-24 09:01 286K
20260424T06Z_MSC_RDPS_GeopotentialHeight_IsbL-0150_RLatLon0.09_PT058H.grib2 2026-04-24 09:01 227K
20260424T06Z_MSC_RDPS_GeopotentialHeight_IsbL-0175_RLatLon0.09_PT058H.grib2 2026-04-24 09:01 229K
20260424T06Z_MSC_RDPS_GeopotentialHeight_IsbL-0200_RLatLon0.09_PT058H.grib2 2026-04-24 09:01 263K
20260424T06Z_MSC_RDPS_GeopotentialHeight_IsbL-0225_RLatLon0.09_PT058H.grib2 2026-04-24 09:01 265K
20260424T06Z_MSC_RDPS_GeopotentialHeight_IsbL-0250_RLatLon0.09_PT058H.grib2 2026-04-24 09:01 267K
20260424T06Z_MSC_RDPS_GeopotentialHeight_IsbL-0275_RLatLon0.09_PT058H.grib2 2026-04-24 09:01 266K
20260424T06Z_MSC_RDPS_GeopotentialHeight_IsbL-0300_RLatLon0.09_PT058H.grib2 2026-04-24 09:01 235K
20260424T06Z_MSC_RDPS_GeopotentialHeight_IsbL-0350_RLatLon0.09_PT058H.grib2 2026-04-24 09:01 230K
20260424T06Z_MSC_RDPS_GeopotentialHeight_IsbL-0400_RLatLon0.09_PT058H.grib2 2026-04-24 09:01 227K
20260424T06Z_MSC_RDPS_GeopotentialHeight_IsbL-0450_RLatLon0.09_PT058H.grib2 2026-04-24 09:01 296K
20260424T06Z_MSC_RDPS_GeopotentialHeight_IsbL-0500_RLatLon0.09_PT058H.grib2 2026-04-24 09:01 291K
20260424T06Z_MSC_RDPS_GeopotentialHeight_IsbL-0550_RLatLon0.09_PT058H.grib2 2026-04-24 09:01 287K
20260424T06Z_MSC_RDPS_GeopotentialHeight_IsbL-0600_RLatLon0.09_PT058H.grib2 2026-04-24 09:01 283K
20260424T06Z_MSC_RDPS_GeopotentialHeight_IsbL-0650_RLatLon0.09_PT058H.grib2 2026-04-24 09:01 281K
20260424T06Z_MSC_RDPS_GeopotentialHeight_IsbL-0700_RLatLon0.09_PT058H.grib2 2026-04-24 09:01 279K
20260424T06Z_MSC_RDPS_GeopotentialHeight_IsbL-0750_RLatLon0.09_PT058H.grib2 2026-04-24 09:01 278K
20260424T06Z_MSC_RDPS_GeopotentialHeight_IsbL-0800_RLatLon0.09_PT058H.grib2 2026-04-24 09:01 261K
20260424T06Z_MSC_RDPS_GeopotentialHeight_IsbL-0850_RLatLon0.09_PT058H.grib2 2026-04-24 09:01 270K
20260424T06Z_MSC_RDPS_GeopotentialHeight_IsbL-0875_RLatLon0.09_PT058H.grib2 2026-04-24 09:01 273K
20260424T06Z_MSC_RDPS_GeopotentialHeight_IsbL-0900_RLatLon0.09_PT058H.grib2 2026-04-24 09:01 276K
20260424T06Z_MSC_RDPS_GeopotentialHeight_IsbL-0925_RLatLon0.09_PT058H.grib2 2026-04-24 09:01 279K
20260424T06Z_MSC_RDPS_GeopotentialHeight_IsbL-0950_RLatLon0.09_PT058H.grib2 2026-04-24 09:01 308K
20260424T06Z_MSC_RDPS_GeopotentialHeight_IsbL-0970_RLatLon0.09_PT058H.grib2 2026-04-24 09:01 313K
20260424T06Z_MSC_RDPS_GeopotentialHeight_IsbL-0985_RLatLon0.09_PT058H.grib2 2026-04-24 09:01 321K
20260424T06Z_MSC_RDPS_GeopotentialHeight_IsbL-1000_RLatLon0.09_PT058H.grib2 2026-04-24 09:01 331K
20260424T06Z_MSC_RDPS_GeopotentialHeight_IsbL-1015_RLatLon0.09_PT058H.grib2 2026-04-24 09:01 343K
20260424T06Z_MSC_RDPS_Humidex_Sfc_RLatLon0.09_PT058H.grib2 2026-04-24 09:01 2.4M
20260424T06Z_MSC_RDPS_IcePellets-Accum1h_Sfc_RLatLon0.09_PT058H.grib2 2026-04-24 09:01 17K
20260424T06Z_MSC_RDPS_IcePellets-Accum_Sfc_RLatLon0.09_PT058H.grib2 2026-04-24 09:01 74K
20260424T06Z_MSC_RDPS_KIndex_Sfc_RLatLon0.09_PT058H.grib2 2026-04-24 09:01 2.5M
20260424T06Z_MSC_RDPS_LatentHeatNetFlux_Sfc_RLatLon0.09_PT058H.grib2 2026-04-24 09:01 389K
20260424T06Z_MSC_RDPS_LiftedIndex-MU-VT_IsbL-0500_RLatLon0.09_PT058H.grib2 2026-04-24 09:01 2.4M
20260424T06Z_MSC_RDPS_NetLongwaveRadiationFlux-Accum_Sfc_RLatLon0.09_PT058H.grib2 2026-04-24 09:01 582K
20260424T06Z_MSC_RDPS_NetShortwaveRadiationFlux-Accum_Sfc_RLatLon0.09_PT058H.grib2 2026-04-24 09:01 591K
20260424T06Z_MSC_RDPS_PlanetaryBoundaryLayerHeight_Sfc_RLatLon0.09_PT058H.grib2 2026-04-24 09:01 1.2M
20260424T06Z_MSC_RDPS_Precip-Accum1h_Sfc_RLatLon0.09_PT058H.grib2 2026-04-24 09:01 1.3M
20260424T06Z_MSC_RDPS_Precip-Accum_Sfc_RLatLon0.09_PT058H.grib2 2026-04-24 09:01 2.1M
20260424T06Z_MSC_RDPS_PrecipRate_Sfc_RLatLon0.09_PT058H.grib2 2026-04-24 09:01 183K
20260424T06Z_MSC_RDPS_PrecipType-Instant_Sfc_RLatLon0.09_PT058H.grib2 2026-04-24 09:01 601K
20260424T06Z_MSC_RDPS_Pressure-Trend3h_Sfc_RLatLon0.09_PT058H.grib2 2026-04-24 09:01 1.2M
20260424T06Z_MSC_RDPS_Pressure_MSL_RLatLon0.09_PT058H.grib2 2026-04-24 09:01 241K
20260424T06Z_MSC_RDPS_Pressure_PVU-1.5_RLatLon0.09_PT058H.grib2 2026-04-24 09:01 2.5M
20260424T06Z_MSC_RDPS_Pressure_PVU-1_RLatLon0.09_PT058H.grib2 2026-04-24 09:01 2.4M
20260424T06Z_MSC_RDPS_Pressure_PVU-2_RLatLon0.09_PT058H.grib2 2026-04-24 09:01 2.4M
20260424T06Z_MSC_RDPS_Pressure_Sfc_RLatLon0.09_PT058H.grib2 2026-04-24 09:01 500K
20260424T06Z_MSC_RDPS_RadiativeTemp_Sfc_RLatLon0.09_PT058H.grib2 2026-04-24 09:01 324K
20260424T06Z_MSC_RDPS_Rain-Accum1h_Sfc_RLatLon0.09_PT058H.grib2 2026-04-24 09:01 600K
20260424T06Z_MSC_RDPS_Rain-Accum_Sfc_RLatLon0.09_PT058H.grib2 2026-04-24 09:01 1.6M
20260424T06Z_MSC_RDPS_RelativeHumidity_AGL-2m_RLatLon0.09_PT058H.grib2 2026-04-24 09:01 1.0M
20260424T06Z_MSC_RDPS_RelativeHumidity_IsbL-0010_RLatLon0.09_PT058H.grib2 2026-04-24 09:01 628K
20260424T06Z_MSC_RDPS_RelativeHumidity_IsbL-0020_RLatLon0.09_PT058H.grib2 2026-04-24 09:01 657K
20260424T06Z_MSC_RDPS_RelativeHumidity_IsbL-0030_RLatLon0.09_PT058H.grib2 2026-04-24 09:01 549K
20260424T06Z_MSC_RDPS_RelativeHumidity_IsbL-0050_RLatLon0.09_PT058H.grib2 2026-04-24 09:01 333K
20260424T06Z_MSC_RDPS_RelativeHumidity_IsbL-0100_RLatLon0.09_PT058H.grib2 2026-04-24 09:01 374K
20260424T06Z_MSC_RDPS_RelativeHumidity_IsbL-0150_RLatLon0.09_PT058H.grib2 2026-04-24 09:01 396K
20260424T06Z_MSC_RDPS_RelativeHumidity_IsbL-0175_RLatLon0.09_PT058H.grib2 2026-04-24 09:01 472K
20260424T06Z_MSC_RDPS_RelativeHumidity_IsbL-0200_RLatLon0.09_PT058H.grib2 2026-04-24 09:01 554K
20260424T06Z_MSC_RDPS_RelativeHumidity_IsbL-0225_RLatLon0.09_PT058H.grib2 2026-04-24 09:01 629K
20260424T06Z_MSC_RDPS_RelativeHumidity_IsbL-0250_RLatLon0.09_PT058H.grib2 2026-04-24 09:01 703K
20260424T06Z_MSC_RDPS_RelativeHumidity_IsbL-0275_RLatLon0.09_PT058H.grib2 2026-04-24 09:01 726K
20260424T06Z_MSC_RDPS_RelativeHumidity_IsbL-0300_RLatLon0.09_PT058H.grib2 2026-04-24 09:01 770K
20260424T06Z_MSC_RDPS_RelativeHumidity_IsbL-0350_RLatLon0.09_PT058H.grib2 2026-04-24 09:01 789K
20260424T06Z_MSC_RDPS_RelativeHumidity_IsbL-0400_RLatLon0.09_PT058H.grib2 2026-04-24 09:01 803K
20260424T06Z_MSC_RDPS_RelativeHumidity_IsbL-0450_RLatLon0.09_PT058H.grib2 2026-04-24 09:01 813K
20260424T06Z_MSC_RDPS_RelativeHumidity_IsbL-0500_RLatLon0.09_PT058H.grib2 2026-04-24 09:01 822K
20260424T06Z_MSC_RDPS_RelativeHumidity_IsbL-0550_RLatLon0.09_PT058H.grib2 2026-04-24 09:01 842K
20260424T06Z_MSC_RDPS_RelativeHumidity_IsbL-0600_RLatLon0.09_PT058H.grib2 2026-04-24 09:01 861K
20260424T06Z_MSC_RDPS_RelativeHumidity_IsbL-0650_RLatLon0.09_PT058H.grib2 2026-04-24 09:01 873K
20260424T06Z_MSC_RDPS_RelativeHumidity_IsbL-0700_RLatLon0.09_PT058H.grib2 2026-04-24 09:01 900K
20260424T06Z_MSC_RDPS_RelativeHumidity_IsbL-0750_RLatLon0.09_PT058H.grib2 2026-04-24 09:01 944K
20260424T06Z_MSC_RDPS_RelativeHumidity_IsbL-0800_RLatLon0.09_PT058H.grib2 2026-04-24 09:01 1.0M
20260424T06Z_MSC_RDPS_RelativeHumidity_IsbL-0850_RLatLon0.09_PT058H.grib2 2026-04-24 09:01 1.1M
20260424T06Z_MSC_RDPS_RelativeHumidity_IsbL-0875_RLatLon0.09_PT058H.grib2 2026-04-24 09:01 1.1M
20260424T06Z_MSC_RDPS_RelativeHumidity_IsbL-0900_RLatLon0.09_PT058H.grib2 2026-04-24 09:01 1.1M
20260424T06Z_MSC_RDPS_RelativeHumidity_IsbL-0925_RLatLon0.09_PT058H.grib2 2026-04-24 09:01 1.1M
20260424T06Z_MSC_RDPS_RelativeHumidity_IsbL-0950_RLatLon0.09_PT058H.grib2 2026-04-24 09:01 1.1M
20260424T06Z_MSC_RDPS_RelativeHumidity_IsbL-0970_RLatLon0.09_PT058H.grib2 2026-04-24 09:01 1.1M
20260424T06Z_MSC_RDPS_RelativeHumidity_IsbL-0985_RLatLon0.09_PT058H.grib2 2026-04-24 09:01 1.1M
20260424T06Z_MSC_RDPS_RelativeHumidity_IsbL-1000_RLatLon0.09_PT058H.grib2 2026-04-24 09:01 1.0M
20260424T06Z_MSC_RDPS_RelativeHumidity_IsbL-1015_RLatLon0.09_PT058H.grib2 2026-04-24 09:01 1.0M
20260424T06Z_MSC_RDPS_Runoff-Accum_Sfc_RLatLon0.09_PT058H.grib2 2026-04-24 09:01 69K
20260424T06Z_MSC_RDPS_SWEATIndex_Sfc_RLatLon0.09_PT058H.grib2 2026-04-24 09:01 2.4M
20260424T06Z_MSC_RDPS_SeeingIndex_EAtm_RLatLon0.09_PT058H.grib2 2026-04-24 09:01 1.0M
20260424T06Z_MSC_RDPS_SensibleHeatNetFlux_Sfc_RLatLon0.09_PT058H.grib2 2026-04-24 09:01 366K
20260424T06Z_MSC_RDPS_ShowalterIndex_IsbL-0500_RLatLon0.09_PT058H.grib2 2026-04-24 09:01 2.6M
20260424T06Z_MSC_RDPS_SkyTransparencyIndex_EAtm_RLatLon0.09_PT058H.grib2 2026-04-24 09:01 728K
20260424T06Z_MSC_RDPS_Snow-Accum1h_Sfc_RLatLon0.09_PT058H.grib2 2026-04-24 09:01 550K
20260424T06Z_MSC_RDPS_Snow-Accum_Sfc_RLatLon0.09_PT058H.grib2 2026-04-24 09:01 914K
20260424T06Z_MSC_RDPS_SnowDensity_Sfc_RLatLon0.09_PT058H.grib2 2026-04-24 09:01 185K
20260424T06Z_MSC_RDPS_SnowDepth_Sfc_RLatLon0.09_PT058H.grib2 2026-04-24 09:01 741K
20260424T06Z_MSC_RDPS_SoilTemp_DBS-0to10cm_RLatLon0.09_PT058H.grib2 2026-04-24 09:01 236K
20260424T06Z_MSC_RDPS_SoilTemp_Sfc_RLatLon0.09_PT058H.grib2 2026-04-24 09:01 290K
20260424T06Z_MSC_RDPS_SoilVolumetricIceContent_Sfc_RLatLon0.09_PT058H.grib2 2026-04-24 09:01 170K
20260424T06Z_MSC_RDPS_SoilVolumetricWaterContent_DBS-0to10cm_RLatLon0.09_PT058H.grib2 2026-04-24 09:01 257K
20260424T06Z_MSC_RDPS_SoilVolumetricWaterContent_DBS-0to1cm_RLatLon0.09_PT058H.grib2 2026-04-24 09:01 343K
20260424T06Z_MSC_RDPS_SpecificHumidity_AGL-120m_RLatLon0.09_PT058H.grib2 2026-04-24 09:01 496K
20260424T06Z_MSC_RDPS_SpecificHumidity_AGL-2m_RLatLon0.09_PT058H.grib2 2026-04-24 09:01 666K
20260424T06Z_MSC_RDPS_SpecificHumidity_AGL-40m_RLatLon0.09_PT058H.grib2 2026-04-24 09:01 500K
20260424T06Z_MSC_RDPS_SpecificHumidity_AGL-80m_RLatLon0.09_PT058H.grib2 2026-04-24 09:01 498K
20260424T06Z_MSC_RDPS_SpecificHumidity_IsbL-0001_RLatLon0.09_PT058H.grib2 2026-04-24 09:01 349K
20260424T06Z_MSC_RDPS_SpecificHumidity_IsbL-0005_RLatLon0.09_PT058H.grib2 2026-04-24 09:01 417K
20260424T06Z_MSC_RDPS_SpecificHumidity_IsbL-0010_RLatLon0.09_PT058H.grib2 2026-04-24 09:01 392K
20260424T06Z_MSC_RDPS_SpecificHumidity_IsbL-0020_RLatLon0.09_PT058H.grib2 2026-04-24 09:01 383K
20260424T06Z_MSC_RDPS_SpecificHumidity_IsbL-0030_RLatLon0.09_PT058H.grib2 2026-04-24 09:01 445K
20260424T06Z_MSC_RDPS_SpecificHumidity_IsbL-0050_RLatLon0.09_PT058H.grib2 2026-04-24 09:01 474K
20260424T06Z_MSC_RDPS_SpecificHumidity_IsbL-0100_RLatLon0.09_PT058H.grib2 2026-04-24 09:01 419K
20260424T06Z_MSC_RDPS_SpecificHumidity_IsbL-0150_RLatLon0.09_PT058H.grib2 2026-04-24 09:01 474K
20260424T06Z_MSC_RDPS_SpecificHumidity_IsbL-0175_RLatLon0.09_PT058H.grib2 2026-04-24 09:01 537K
20260424T06Z_MSC_RDPS_SpecificHumidity_IsbL-0200_RLatLon0.09_PT058H.grib2 2026-04-24 09:01 447K
20260424T06Z_MSC_RDPS_SpecificHumidity_IsbL-0225_RLatLon0.09_PT058H.grib2 2026-04-24 09:01 561K
20260424T06Z_MSC_RDPS_SpecificHumidity_IsbL-0250_RLatLon0.09_PT058H.grib2 2026-04-24 09:01 563K
20260424T06Z_MSC_RDPS_SpecificHumidity_IsbL-0275_RLatLon0.09_PT058H.grib2 2026-04-24 09:01 475K
20260424T06Z_MSC_RDPS_SpecificHumidity_IsbL-0300_RLatLon0.09_PT058H.grib2 2026-04-24 09:01 546K
20260424T06Z_MSC_RDPS_SpecificHumidity_IsbL-0350_RLatLon0.09_PT058H.grib2 2026-04-24 09:01 535K
20260424T06Z_MSC_RDPS_SpecificHumidity_IsbL-0400_RLatLon0.09_PT058H.grib2 2026-04-24 09:01 516K
20260424T06Z_MSC_RDPS_SpecificHumidity_IsbL-0450_RLatLon0.09_PT058H.grib2 2026-04-24 09:01 571K
20260424T06Z_MSC_RDPS_SpecificHumidity_IsbL-0500_RLatLon0.09_PT058H.grib2 2026-04-24 09:01 508K
20260424T06Z_MSC_RDPS_SpecificHumidity_IsbL-0550_RLatLon0.09_PT058H.grib2 2026-04-24 09:01 566K
20260424T06Z_MSC_RDPS_SpecificHumidity_IsbL-0600_RLatLon0.09_PT058H.grib2 2026-04-24 09:01 632K
20260424T06Z_MSC_RDPS_SpecificHumidity_IsbL-0650_RLatLon0.09_PT058H.grib2 2026-04-24 09:01 549K
20260424T06Z_MSC_RDPS_SpecificHumidity_IsbL-0700_RLatLon0.09_PT058H.grib2 2026-04-24 09:01 594K
20260424T06Z_MSC_RDPS_SpecificHumidity_IsbL-0750_RLatLon0.09_PT058H.grib2 2026-04-24 09:01 652K
20260424T06Z_MSC_RDPS_SpecificHumidity_IsbL-0800_RLatLon0.09_PT058H.grib2 2026-04-24 09:01 736K
20260424T06Z_MSC_RDPS_SpecificHumidity_IsbL-0850_RLatLon0.09_PT058H.grib2 2026-04-24 09:01 808K
20260424T06Z_MSC_RDPS_SpecificHumidity_IsbL-0875_RLatLon0.09_PT058H.grib2 2026-04-24 09:01 832K
20260424T06Z_MSC_RDPS_SpecificHumidity_IsbL-0900_RLatLon0.09_PT058H.grib2 2026-04-24 09:01 842K
20260424T06Z_MSC_RDPS_SpecificHumidity_IsbL-0925_RLatLon0.09_PT058H.grib2 2026-04-24 09:01 841K
20260424T06Z_MSC_RDPS_SpecificHumidity_IsbL-0950_RLatLon0.09_PT058H.grib2 2026-04-24 09:01 699K
20260424T06Z_MSC_RDPS_SpecificHumidity_IsbL-0970_RLatLon0.09_PT058H.grib2 2026-04-24 09:01 693K
20260424T06Z_MSC_RDPS_SpecificHumidity_IsbL-0985_RLatLon0.09_PT058H.grib2 2026-04-24 09:01 689K
20260424T06Z_MSC_RDPS_SpecificHumidity_IsbL-1000_RLatLon0.09_PT058H.grib2 2026-04-24 09:01 683K
20260424T06Z_MSC_RDPS_SpecificHumidity_IsbL-1015_RLatLon0.09_PT058H.grib2 2026-04-24 09:01 675K
20260424T06Z_MSC_RDPS_SpecificHumidity_Sfc_RLatLon0.09_PT058H.grib2 2026-04-24 09:01 331K
20260424T06Z_MSC_RDPS_StormRelativeHelicity_EtaL-10000_RLatLon0.09_PT058H.grib2 2026-04-24 09:01 1.1M
20260424T06Z_MSC_RDPS_StormSeverityIndex_EtaL-10000_RLatLon0.09_PT058H.grib2 2026-04-24 09:01 1.2M
20260424T06Z_MSC_RDPS_Thickness_IsbL-0850to0700_RLatLon0.09_PT058H.grib2 2026-04-24 09:01 176K
20260424T06Z_MSC_RDPS_Thickness_IsbL-1000to0500_RLatLon0.09_PT058H.grib2 2026-04-24 09:01 204K
20260424T06Z_MSC_RDPS_Thickness_IsbL-1000to0850_RLatLon0.09_PT058H.grib2 2026-04-24 09:01 190K
20260424T06Z_MSC_RDPS_TotalCloudCover_Sfc_RLatLon0.09_PT058H.grib2 2026-04-24 09:01 686K
20260424T06Z_MSC_RDPS_TotalTotalsIndex_Sfc_RLatLon0.09_PT058H.grib2 2026-04-24 09:01 2.4M
20260424T06Z_MSC_RDPS_UVIndex-ClearSky_Sfc_RLatLon0.09_PT058H.grib2 2026-04-24 09:01 206K
20260424T06Z_MSC_RDPS_UVIndex_Sfc_RLatLon0.09_PT058H.grib2 2026-04-24 09:01 480K
20260424T06Z_MSC_RDPS_UpwardLongwaveRadiationFlux_NTAtm_RLatLon0.09_PT058H.grib2 2026-04-24 09:01 497K
20260424T06Z_MSC_RDPS_UpwardShortwaveRadiationFlux_NTAtm_RLatLon0.09_PT058H.grib2 2026-04-24 09:01 521K
20260424T06Z_MSC_RDPS_VerticalVelocity_IsbL-0250_RLatLon0.09_PT058H.grib2 2026-04-24 09:01 549K
20260424T06Z_MSC_RDPS_VerticalVelocity_IsbL-0500_RLatLon0.09_PT058H.grib2 2026-04-24 09:01 539K
20260424T06Z_MSC_RDPS_VerticalVelocity_IsbL-0700_RLatLon0.09_PT058H.grib2 2026-04-24 09:01 592K
20260424T06Z_MSC_RDPS_VerticalVelocity_IsbL-0850_RLatLon0.09_PT058H.grib2 2026-04-24 09:01 702K
20260424T06Z_MSC_RDPS_VerticalWindShear_EtaL-6500_RLatLon0.09_PT058H.grib2 2026-04-24 09:01 1.2M
20260424T06Z_MSC_RDPS_WindChill_Sfc_RLatLon0.09_PT058H.grib2 2026-04-24 09:01 1.1M
20260424T06Z_MSC_RDPS_WindDir_AGL-10m_RLatLon0.09_PT058H.grib2 2026-04-24 09:01 1.0M
20260424T06Z_MSC_RDPS_WindDir_AGL-120m_RLatLon0.09_PT058H.grib2 2026-04-24 09:01 637K
20260424T06Z_MSC_RDPS_WindDir_AGL-40m_RLatLon0.09_PT058H.grib2 2026-04-24 09:01 659K
20260424T06Z_MSC_RDPS_WindDir_AGL-80m_RLatLon0.09_PT058H.grib2 2026-04-24 09:01 646K
20260424T06Z_MSC_RDPS_WindDir_IsbL-0001_RLatLon0.09_PT058H.grib2 2026-04-24 09:01 290K
20260424T06Z_MSC_RDPS_WindDir_IsbL-0005_RLatLon0.09_PT058H.grib2 2026-04-24 09:01 358K
20260424T06Z_MSC_RDPS_WindDir_IsbL-0010_RLatLon0.09_PT058H.grib2 2026-04-24 09:01 388K
20260424T06Z_MSC_RDPS_WindDir_IsbL-0020_RLatLon0.09_PT058H.grib2 2026-04-24 09:01 405K
20260424T06Z_MSC_RDPS_WindDir_IsbL-0030_RLatLon0.09_PT058H.grib2 2026-04-24 09:01 433K
20260424T06Z_MSC_RDPS_WindDir_IsbL-0050_RLatLon0.09_PT058H.grib2 2026-04-24 09:01 447K
20260424T06Z_MSC_RDPS_WindDir_IsbL-0100_RLatLon0.09_PT058H.grib2 2026-04-24 09:01 424K
20260424T06Z_MSC_RDPS_WindDir_IsbL-0150_RLatLon0.09_PT058H.grib2 2026-04-24 09:01 409K
20260424T06Z_MSC_RDPS_WindDir_IsbL-0175_RLatLon0.09_PT058H.grib2 2026-04-24 09:01 431K
20260424T06Z_MSC_RDPS_WindDir_IsbL-0200_RLatLon0.09_PT058H.grib2 2026-04-24 09:01 442K
20260424T06Z_MSC_RDPS_WindDir_IsbL-0225_RLatLon0.09_PT058H.grib2 2026-04-24 09:01 444K
20260424T06Z_MSC_RDPS_WindDir_IsbL-0250_RLatLon0.09_PT058H.grib2 2026-04-24 09:01 445K
20260424T06Z_MSC_RDPS_WindDir_IsbL-0275_RLatLon0.09_PT058H.grib2 2026-04-24 09:01 468K
20260424T06Z_MSC_RDPS_WindDir_IsbL-0300_RLatLon0.09_PT058H.grib2 2026-04-24 09:01 470K
20260424T06Z_MSC_RDPS_WindDir_IsbL-0350_RLatLon0.09_PT058H.grib2 2026-04-24 09:01 498K
20260424T06Z_MSC_RDPS_WindDir_IsbL-0400_RLatLon0.09_PT058H.grib2 2026-04-24 09:01 510K
20260424T06Z_MSC_RDPS_WindDir_IsbL-0450_RLatLon0.09_PT058H.grib2 2026-04-24 09:01 524K
20260424T06Z_MSC_RDPS_WindDir_IsbL-0500_RLatLon0.09_PT058H.grib2 2026-04-24 09:01 536K
20260424T06Z_MSC_RDPS_WindDir_IsbL-0550_RLatLon0.09_PT058H.grib2 2026-04-24 09:01 555K
20260424T06Z_MSC_RDPS_WindDir_IsbL-0600_RLatLon0.09_PT058H.grib2 2026-04-24 09:01 584K
20260424T06Z_MSC_RDPS_WindDir_IsbL-0650_RLatLon0.09_PT058H.grib2 2026-04-24 09:01 627K
20260424T06Z_MSC_RDPS_WindDir_IsbL-0700_RLatLon0.09_PT058H.grib2 2026-04-24 09:01 672K
20260424T06Z_MSC_RDPS_WindDir_IsbL-0750_RLatLon0.09_PT058H.grib2 2026-04-24 09:01 730K
20260424T06Z_MSC_RDPS_WindDir_IsbL-0800_RLatLon0.09_PT058H.grib2 2026-04-24 09:01 805K
20260424T06Z_MSC_RDPS_WindDir_IsbL-0850_RLatLon0.09_PT058H.grib2 2026-04-24 09:01 886K
20260424T06Z_MSC_RDPS_WindDir_IsbL-0875_RLatLon0.09_PT058H.grib2 2026-04-24 09:01 916K
20260424T06Z_MSC_RDPS_WindDir_IsbL-0900_RLatLon0.09_PT058H.grib2 2026-04-24 09:01 931K
20260424T06Z_MSC_RDPS_WindDir_IsbL-0925_RLatLon0.09_PT058H.grib2 2026-04-24 09:01 938K
20260424T06Z_MSC_RDPS_WindDir_IsbL-0950_RLatLon0.09_PT058H.grib2 2026-04-24 09:01 935K
20260424T06Z_MSC_RDPS_WindDir_IsbL-0970_RLatLon0.09_PT058H.grib2 2026-04-24 09:01 940K
20260424T06Z_MSC_RDPS_WindDir_IsbL-0985_RLatLon0.09_PT058H.grib2 2026-04-24 09:01 953K
20260424T06Z_MSC_RDPS_WindDir_IsbL-1000_RLatLon0.09_PT058H.grib2 2026-04-24 09:01 971K
20260424T06Z_MSC_RDPS_WindDir_IsbL-1015_RLatLon0.09_PT058H.grib2 2026-04-24 09:01 1.0M
20260424T06Z_MSC_RDPS_WindGust-Max_AGL-10m_RLatLon0.09_PT058H.grib2 2026-04-24 09:01 1.0M
20260424T06Z_MSC_RDPS_WindGust-Min_AGL-10m_RLatLon0.09_PT058H.grib2 2026-04-24 09:01 1.0M
20260424T06Z_MSC_RDPS_WindGust_AGL-10m_RLatLon0.09_PT058H.grib2 2026-04-24 09:01 1.0M
20260424T06Z_MSC_RDPS_WindSpeed_AGL-10m_RLatLon0.09_PT058H.grib2 2026-04-24 09:01 858K
20260424T06Z_MSC_RDPS_WindSpeed_AGL-120m_RLatLon0.09_PT058H.grib2 2026-04-24 09:01 546K
20260424T06Z_MSC_RDPS_WindSpeed_AGL-40m_RLatLon0.09_PT058H.grib2 2026-04-24 09:01 550K
20260424T06Z_MSC_RDPS_WindSpeed_AGL-80m_RLatLon0.09_PT058H.grib2 2026-04-24 09:01 547K
20260424T06Z_MSC_RDPS_WindSpeed_IsbL-0001_RLatLon0.09_PT058H.grib2 2026-04-24 09:01 253K
20260424T06Z_MSC_RDPS_WindSpeed_IsbL-0005_RLatLon0.09_PT058H.grib2 2026-04-24 09:01 298K
20260424T06Z_MSC_RDPS_WindSpeed_IsbL-0010_RLatLon0.09_PT058H.grib2 2026-04-24 09:01 409K
20260424T06Z_MSC_RDPS_WindSpeed_IsbL-0020_RLatLon0.09_PT058H.grib2 2026-04-24 09:01 335K
20260424T06Z_MSC_RDPS_WindSpeed_IsbL-0030_RLatLon0.09_PT058H.grib2 2026-04-24 09:01 334K
20260424T06Z_MSC_RDPS_WindSpeed_IsbL-0050_RLatLon0.09_PT058H.grib2 2026-04-24 09:01 476K
20260424T06Z_MSC_RDPS_WindSpeed_IsbL-0100_RLatLon0.09_PT058H.grib2 2026-04-24 09:01 473K
20260424T06Z_MSC_RDPS_WindSpeed_IsbL-0150_RLatLon0.09_PT058H.grib2 2026-04-24 09:01 372K
20260424T06Z_MSC_RDPS_WindSpeed_IsbL-0175_RLatLon0.09_PT058H.grib2 2026-04-24 09:01 399K
20260424T06Z_MSC_RDPS_WindSpeed_IsbL-0200_RLatLon0.09_PT058H.grib2 2026-04-24 09:01 437K
20260424T06Z_MSC_RDPS_WindSpeed_IsbL-0225_RLatLon0.09_PT058H.grib2 2026-04-24 09:01 447K
20260424T06Z_MSC_RDPS_WindSpeed_IsbL-0250_RLatLon0.09_PT058H.grib2 2026-04-24 09:01 452K
20260424T06Z_MSC_RDPS_WindSpeed_IsbL-0275_RLatLon0.09_PT058H.grib2 2026-04-24 09:01 471K
20260424T06Z_MSC_RDPS_WindSpeed_IsbL-0300_RLatLon0.09_PT058H.grib2 2026-04-24 09:01 468K
20260424T06Z_MSC_RDPS_WindSpeed_IsbL-0350_RLatLon0.09_PT058H.grib2 2026-04-24 09:01 477K
20260424T06Z_MSC_RDPS_WindSpeed_IsbL-0400_RLatLon0.09_PT058H.grib2 2026-04-24 09:01 461K
20260424T06Z_MSC_RDPS_WindSpeed_IsbL-0450_RLatLon0.09_PT058H.grib2 2026-04-24 09:01 460K
20260424T06Z_MSC_RDPS_WindSpeed_IsbL-0500_RLatLon0.09_PT058H.grib2 2026-04-24 09:01 577K
20260424T06Z_MSC_RDPS_WindSpeed_IsbL-0550_RLatLon0.09_PT058H.grib2 2026-04-24 09:01 579K
20260424T06Z_MSC_RDPS_WindSpeed_IsbL-0600_RLatLon0.09_PT058H.grib2 2026-04-24 09:01 590K
20260424T06Z_MSC_RDPS_WindSpeed_IsbL-0650_RLatLon0.09_PT058H.grib2 2026-04-24 09:01 655K
20260424T06Z_MSC_RDPS_WindSpeed_IsbL-0700_RLatLon0.09_PT058H.grib2 2026-04-24 09:01 679K
20260424T06Z_MSC_RDPS_WindSpeed_IsbL-0750_RLatLon0.09_PT058H.grib2 2026-04-24 09:01 712K
20260424T06Z_MSC_RDPS_WindSpeed_IsbL-0800_RLatLon0.09_PT058H.grib2 2026-04-24 09:01 764K
20260424T06Z_MSC_RDPS_WindSpeed_IsbL-0850_RLatLon0.09_PT058H.grib2 2026-04-24 09:01 823K
20260424T06Z_MSC_RDPS_WindSpeed_IsbL-0875_RLatLon0.09_PT058H.grib2 2026-04-24 09:01 846K
20260424T06Z_MSC_RDPS_WindSpeed_IsbL-0900_RLatLon0.09_PT058H.grib2 2026-04-24 09:01 860K
20260424T06Z_MSC_RDPS_WindSpeed_IsbL-0925_RLatLon0.09_PT058H.grib2 2026-04-24 09:01 868K
20260424T06Z_MSC_RDPS_WindSpeed_IsbL-0950_RLatLon0.09_PT058H.grib2 2026-04-24 09:01 866K
20260424T06Z_MSC_RDPS_WindSpeed_IsbL-0970_RLatLon0.09_PT058H.grib2 2026-04-24 09:01 866K
20260424T06Z_MSC_RDPS_WindSpeed_IsbL-0985_RLatLon0.09_PT058H.grib2 2026-04-24 09:01 866K
20260424T06Z_MSC_RDPS_WindSpeed_IsbL-1000_RLatLon0.09_PT058H.grib2 2026-04-24 09:01 863K
20260424T06Z_MSC_RDPS_WindSpeed_IsbL-1015_RLatLon0.09_PT058H.grib2 2026-04-24 09:01 856K
20260424T06Z_MSC_RDPS_WindU_AGL-10m_RLatLon0.09_PT058H.grib2 2026-04-24 09:01 442K
20260424T06Z_MSC_RDPS_WindU_AGL-120m_RLatLon0.09_PT058H.grib2 2026-04-24 09:01 541K
20260424T06Z_MSC_RDPS_WindU_AGL-40m_RLatLon0.09_PT058H.grib2 2026-04-24 09:01 545K
20260424T06Z_MSC_RDPS_WindU_AGL-80m_RLatLon0.09_PT058H.grib2 2026-04-24 09:01 542K
20260424T06Z_MSC_RDPS_WindU_IsbL-0001_RLatLon0.09_PT058H.grib2 2026-04-24 09:01 294K
20260424T06Z_MSC_RDPS_WindU_IsbL-0005_RLatLon0.09_PT058H.grib2 2026-04-24 09:01 291K
20260424T06Z_MSC_RDPS_WindU_IsbL-0010_RLatLon0.09_PT058H.grib2 2026-04-24 09:01 306K
20260424T06Z_MSC_RDPS_WindU_IsbL-0020_RLatLon0.09_PT058H.grib2 2026-04-24 09:01 366K
20260424T06Z_MSC_RDPS_WindU_IsbL-0030_RLatLon0.09_PT058H.grib2 2026-04-24 09:01 364K
20260424T06Z_MSC_RDPS_WindU_IsbL-0050_RLatLon0.09_PT058H.grib2 2026-04-24 09:01 363K
20260424T06Z_MSC_RDPS_WindU_IsbL-0100_RLatLon0.09_PT058H.grib2 2026-04-24 09:01 431K
20260424T06Z_MSC_RDPS_WindU_IsbL-0150_RLatLon0.09_PT058H.grib2 2026-04-24 09:01 388K
20260424T06Z_MSC_RDPS_WindU_IsbL-0175_RLatLon0.09_PT058H.grib2 2026-04-24 09:01 415K
20260424T06Z_MSC_RDPS_WindU_IsbL-0200_RLatLon0.09_PT058H.grib2 2026-04-24 09:01 432K
20260424T06Z_MSC_RDPS_WindU_IsbL-0225_RLatLon0.09_PT058H.grib2 2026-04-24 09:01 439K
20260424T06Z_MSC_RDPS_WindU_IsbL-0250_RLatLon0.09_PT058H.grib2 2026-04-24 09:01 342K
20260424T06Z_MSC_RDPS_WindU_IsbL-0275_RLatLon0.09_PT058H.grib2 2026-04-24 09:01 358K
20260424T06Z_MSC_RDPS_WindU_IsbL-0300_RLatLon0.09_PT058H.grib2 2026-04-24 09:01 355K
20260424T06Z_MSC_RDPS_WindU_IsbL-0350_RLatLon0.09_PT058H.grib2 2026-04-24 09:01 466K
20260424T06Z_MSC_RDPS_WindU_IsbL-0400_RLatLon0.09_PT058H.grib2 2026-04-24 09:01 466K
20260424T06Z_MSC_RDPS_WindU_IsbL-0450_RLatLon0.09_PT058H.grib2 2026-04-24 09:01 466K
20260424T06Z_MSC_RDPS_WindU_IsbL-0500_RLatLon0.09_PT058H.grib2 2026-04-24 09:01 467K
20260424T06Z_MSC_RDPS_WindU_IsbL-0550_RLatLon0.09_PT058H.grib2 2026-04-24 09:01 468K
20260424T06Z_MSC_RDPS_WindU_IsbL-0600_RLatLon0.09_PT058H.grib2 2026-04-24 09:01 461K
20260424T06Z_MSC_RDPS_WindU_IsbL-0650_RLatLon0.09_PT058H.grib2 2026-04-24 09:01 481K
20260424T06Z_MSC_RDPS_WindU_IsbL-0700_RLatLon0.09_PT058H.grib2 2026-04-24 09:01 503K
20260424T06Z_MSC_RDPS_WindU_IsbL-0750_RLatLon0.09_PT058H.grib2 2026-04-24 09:01 532K
20260424T06Z_MSC_RDPS_WindU_IsbL-0800_RLatLon0.09_PT058H.grib2 2026-04-24 09:01 578K
20260424T06Z_MSC_RDPS_WindU_IsbL-0850_RLatLon0.09_PT058H.grib2 2026-04-24 09:01 630K
20260424T06Z_MSC_RDPS_WindU_IsbL-0875_RLatLon0.09_PT058H.grib2 2026-04-24 09:01 649K
20260424T06Z_MSC_RDPS_WindU_IsbL-0900_RLatLon0.09_PT058H.grib2 2026-04-24 09:01 660K
20260424T06Z_MSC_RDPS_WindU_IsbL-0925_RLatLon0.09_PT058H.grib2 2026-04-24 09:01 663K
20260424T06Z_MSC_RDPS_WindU_IsbL-0950_RLatLon0.09_PT058H.grib2 2026-04-24 09:01 659K
20260424T06Z_MSC_RDPS_WindU_IsbL-0970_RLatLon0.09_PT058H.grib2 2026-04-24 09:01 657K
20260424T06Z_MSC_RDPS_WindU_IsbL-0985_RLatLon0.09_PT058H.grib2 2026-04-24 09:01 799K
20260424T06Z_MSC_RDPS_WindU_IsbL-1000_RLatLon0.09_PT058H.grib2 2026-04-24 09:01 800K
20260424T06Z_MSC_RDPS_WindU_IsbL-1015_RLatLon0.09_PT058H.grib2 2026-04-24 09:01 796K
20260424T06Z_MSC_RDPS_WindV_AGL-10m_RLatLon0.09_PT058H.grib2 2026-04-24 09:01 438K
20260424T06Z_MSC_RDPS_WindV_AGL-120m_RLatLon0.09_PT058H.grib2 2026-04-24 09:01 422K
20260424T06Z_MSC_RDPS_WindV_AGL-40m_RLatLon0.09_PT058H.grib2 2026-04-24 09:01 424K
20260424T06Z_MSC_RDPS_WindV_AGL-80m_RLatLon0.09_PT058H.grib2 2026-04-24 09:01 423K
20260424T06Z_MSC_RDPS_WindV_IsbL-0001_RLatLon0.09_PT058H.grib2 2026-04-24 09:01 267K
20260424T06Z_MSC_RDPS_WindV_IsbL-0005_RLatLon0.09_PT058H.grib2 2026-04-24 09:01 331K
20260424T06Z_MSC_RDPS_WindV_IsbL-0010_RLatLon0.09_PT058H.grib2 2026-04-24 09:01 306K
20260424T06Z_MSC_RDPS_WindV_IsbL-0020_RLatLon0.09_PT058H.grib2 2026-04-24 09:01 366K
20260424T06Z_MSC_RDPS_WindV_IsbL-0030_RLatLon0.09_PT058H.grib2 2026-04-24 09:01 326K
20260424T06Z_MSC_RDPS_WindV_IsbL-0050_RLatLon0.09_PT058H.grib2 2026-04-24 09:01 358K
20260424T06Z_MSC_RDPS_WindV_IsbL-0100_RLatLon0.09_PT058H.grib2 2026-04-24 09:01 329K
20260424T06Z_MSC_RDPS_WindV_IsbL-0150_RLatLon0.09_PT058H.grib2 2026-04-24 09:01 387K
20260424T06Z_MSC_RDPS_WindV_IsbL-0175_RLatLon0.09_PT058H.grib2 2026-04-24 09:01 412K
20260424T06Z_MSC_RDPS_WindV_IsbL-0200_RLatLon0.09_PT058H.grib2 2026-04-24 09:01 429K
20260424T06Z_MSC_RDPS_WindV_IsbL-0225_RLatLon0.09_PT058H.grib2 2026-04-24 09:01 338K
20260424T06Z_MSC_RDPS_WindV_IsbL-0250_RLatLon0.09_PT058H.grib2 2026-04-24 09:01 340K
20260424T06Z_MSC_RDPS_WindV_IsbL-0275_RLatLon0.09_PT058H.grib2 2026-04-24 09:01 378K
20260424T06Z_MSC_RDPS_WindV_IsbL-0300_RLatLon0.09_PT058H.grib2 2026-04-24 09:01 375K
20260424T06Z_MSC_RDPS_WindV_IsbL-0350_RLatLon0.09_PT058H.grib2 2026-04-24 09:01 381K
20260424T06Z_MSC_RDPS_WindV_IsbL-0400_RLatLon0.09_PT058H.grib2 2026-04-24 09:01 358K
20260424T06Z_MSC_RDPS_WindV_IsbL-0450_RLatLon0.09_PT058H.grib2 2026-04-24 09:01 357K
20260424T06Z_MSC_RDPS_WindV_IsbL-0500_RLatLon0.09_PT058H.grib2 2026-04-24 09:01 460K
20260424T06Z_MSC_RDPS_WindV_IsbL-0550_RLatLon0.09_PT058H.grib2 2026-04-24 09:01 462K
20260424T06Z_MSC_RDPS_WindV_IsbL-0600_RLatLon0.09_PT058H.grib2 2026-04-24 09:01 472K
20260424T06Z_MSC_RDPS_WindV_IsbL-0650_RLatLon0.09_PT058H.grib2 2026-04-24 09:01 492K
20260424T06Z_MSC_RDPS_WindV_IsbL-0700_RLatLon0.09_PT058H.grib2 2026-04-24 09:01 498K
20260424T06Z_MSC_RDPS_WindV_IsbL-0750_RLatLon0.09_PT058H.grib2 2026-04-24 09:01 527K
20260424T06Z_MSC_RDPS_WindV_IsbL-0800_RLatLon0.09_PT058H.grib2 2026-04-24 09:01 572K
20260424T06Z_MSC_RDPS_WindV_IsbL-0850_RLatLon0.09_PT058H.grib2 2026-04-24 09:01 624K
20260424T06Z_MSC_RDPS_WindV_IsbL-0875_RLatLon0.09_PT058H.grib2 2026-04-24 09:01 651K
20260424T06Z_MSC_RDPS_WindV_IsbL-0900_RLatLon0.09_PT058H.grib2 2026-04-24 09:01 661K
20260424T06Z_MSC_RDPS_WindV_IsbL-0925_RLatLon0.09_PT058H.grib2 2026-04-24 09:01 666K
20260424T06Z_MSC_RDPS_WindV_IsbL-0950_RLatLon0.09_PT058H.grib2 2026-04-24 09:01 663K
20260424T06Z_MSC_RDPS_WindV_IsbL-0970_RLatLon0.09_PT058H.grib2 2026-04-24 09:01 657K
20260424T06Z_MSC_RDPS_WindV_IsbL-0985_RLatLon0.09_PT058H.grib2 2026-04-24 09:01 658K
20260424T06Z_MSC_RDPS_WindV_IsbL-1000_RLatLon0.09_PT058H.grib2 2026-04-24 09:01 658K
20260424T06Z_MSC_RDPS_WindV_IsbL-1015_RLatLon0.09_PT058H.grib2 2026-04-24 09:01 792K